Regional Weather Roundup
Issued by NWS

Home | Current Version | Previous Version | Text Only | Print | Product List | Glossary On
Versions: 1 2 3 4 5 6 7 8 9 10 11 12 13 14 15 16 17 18 19 20 21 22 23 24 25 26 27 28 29 30 31 32 33 34 35 36 37 38 39 40 41 42 43 44 45 46 47 48 49 50
000
ASUS43 KIND 231209
RWRIN

WEATHER ROUNDUP FOR INDIANA
NATIONAL WEATHER SERVICE INDIANAPOLIS IN
700 AM EST MON JAN 23 2017

NOTE: "FAIR" INDICATES FEW OR NO CLOUDS BELOW 12,000 FEET WITH NO
SIGNIFICANT WEATHER AND/OR OBSTRUCTIONS TO VISIBILITY.

* - STATION DOES NOT REPORT WEATHER SUCH AS PRECIPITATION OR FOG.

+ - STATION NOT QUALITY CONTROLLED BY THE NATIONAL WEATHER SERVICE.
    USE DATA WITH CAUTION...ESPECIALLY DEWPOINT AND RELATIVE
    HUMIDITY OBSERVATIONS.

INZ001>003-010>013-019-020-231300-
NORTHWEST INDIANA

CITY           SKY/WX    TMP DP  RH WIND       PRES   REMARKS
GARY /AIRPORT/ CLOUDY    39  36  87 N13       29.72S
KNOX *+        CLOUDY    37  32  81 N13       29.67R
LA PORTE +     FOG       37  37 100 N13G18    29.69R VSB 3/4
6HR MIN TEMP:  37; 6HR MAX TEMP:  39;

MICHIGAN CITY+ CLOUDY    37  37 100 N13       29.70S
MONTICELLO +   CLOUDY    39  38  94 N15G23    29.64R
6HR MIN TEMP:  39; 6HR MAX TEMP:  42;

RENSSELAER +   CLOUDY    36  36 100 N8G18     29.68R FOG
VALPARAISO     CLOUDY    38  38 100 N12       29.68S FOG
6HR MIN TEMP:  38; 6HR MAX TEMP:  40;


$$

LMZ046-743>745-231300-
SOUTHERN LAKE MICHIGAN

STATION/POSITION TIME  TEMP    WIND        PRES    WAVE
                       AIR SEA DIR/SP/G            HT
                 (UTC) (F)     (DEG/KT/KT) (MB)    (FT)
BURNS HARBOR     1140   36     350/ 12/ 16 1006.8R
MICHIGAN CITY    1140   36     330/ 17/ 18   N/A

$$

INZ004-005-014>016-021>024-231300-
NORTH CENTRAL INDIANA

CITY           SKY/WX    TMP DP  RH WIND       PRES   REMARKS
ELKHART        CLOUDY    41  39  93 N9        29.65  FOG
GOSHEN         CLOUDY    42  39  89 N13       29.64R FOG
6HR MIN TEMP:  42; 6HR MAX TEMP:  43; 6HR PCP: TRACE;

LOGANSPORT +   CLOUDY    39  39 100 N16       29.63R FOG
PERU/GRISSOM   CLOUDY    41  41 100 N15       29.60R
6HR MIN TEMP:  42; 6HR MAX TEMP:  45;

ROCHESTER +    CLOUDY    43  43 100 N12G18    29.64R FOG
SOUTH BEND     CLOUDY    38  38 100 N16       29.67R FOG
6HR MIN TEMP:  38; 6HR MAX TEMP:  40;

WARSAW +       FOG       41  41 100 N9        29.64R VSB 1

$$

INZ006>009-017-018-025>027-231300-
NORTHEAST INDIANA

CITY           SKY/WX    TMP DP  RH WIND       PRES   REMARKS
ANGOLA *+      CLOUDY    43  32  65 N5        29.62R
AUBURN +       CLOUDY    43  41  93 N10       29.61S FOG
FORT WAYNE     CLOUDY    45  43  93 N13       29.60R FOG
6HR MIN TEMP:  45; 6HR MAX TEMP:  48; 6HR PCP: TRACE;

HUNTINGTON +   CLOUDY    42  41  96 N10G16    29.60R FOG
6HR MIN TEMP:  42; 6HR MAX TEMP:  47;

KENDALLVILLE + CLOUDY    42  42 100 N12       29.62R FOG

$$

INZ028-029-035-036-043>045-051>053-231300-
WEST CENTRAL INDIANA

CITY           SKY/WX    TMP DP  RH WIND       PRES   REMARKS
CRAWFORDSVL +  CLOUDY    38  38 100 NW13      29.63R FOG
6HR MIN TEMP:  38; 6HR MAX TEMP:  42;

GREENCASTLE +  CLOUDY    39  39 100 N20G26    29.61R FOG
LAFAYETTE      CLOUDY    39  39 100 N14G22    29.65R
6HR MIN TEMP:  39; 6HR MAX TEMP:  42;

TERRE HAUTE    CLOUDY    42  38  85 N15G29    29.62R
6HR MIN TEMP:  42; 6HR MAX TEMP:  46;


$$

INZ030>032-037>040-046>048-054>057-064-065-231300-
CENTRAL INDIANA

CITY           SKY/WX    TMP DP  RH WIND       PRES   REMARKS
CP ATTERBURY + CLOUDY    45  43  93 N15G22    29.57R
COLUMBUS       CLOUDY    46  46 100 N16G25    29.54
FRANKFORT +    CLOUDY    42  42  98 N18G24    29.63R FOG
6HR MIN TEMP:  42; 6HR MAX TEMP:  46;

GREENWOOD *+   CLOUDY    45  45 100 N14G20    29.58R
6HR MIN TEMP:  45; 6HR MAX TEMP:  51;

INDIANAPOLIS   CLOUDY    43  42  97 N16       29.59R FOG
6HR MIN TEMP:  43; 6HR MAX TEMP:  50;

-EAGLE CREEK   CLOUDY    43  41  93 N12       29.59R FOG
6HR MIN TEMP:  43; 6HR MAX TEMP:  50;

KOKOMO +       FOG       42  42 100 N14       29.62R VSB 1
6HR MIN TEMP:  42; 6HR MAX TEMP:  46; 6HR PCP: TRACE;

MARION +       CLOUDY    43  43 100 N12       29.59R FOG
MT COMFORT *+  CLOUDY    43  43 100 N20       29.57R
SHELBYVILLE    CLOUDY    46  44  93 N20       29.54R FOG
6HR MIN TEMP:  46; 6HR MAX TEMP:  52;

ZIONSVILLE +   FOG       41  40  99 N13G20    29.60R VSB 1/2
6HR MIN TEMP:  41; 6HR MAX TEMP:  47;


$$

INZ033-034-041-042-049-050-058-059-231300-
EAST CENTRAL INDIANA

CITY           SKY/WX    TMP DP  RH WIND       PRES   REMARKS
MUNCIE         FOG       47  45  93 N16       29.55S VSB 1
6HR MIN TEMP:  46; 6HR MAX TEMP:  50;


$$

INZ060-061-067>069-081>083-085>088-231300-
SOUTHWEST INDIANA

CITY           SKY/WX    TMP DP  RH WIND       PRES   REMARKS
EVANSVILLE     CLOUDY    44  39  82 NW16G24   29.61R HAZE
6HR MIN TEMP:  44; 6HR MAX TEMP:  51;

HUNTINGBURG *+ CLOUDY    43  42  97 NW17G25   29.57R FOG
6HR MIN TEMP:  43; 6HR MAX TEMP:  52;

WASHINGTON +   CLOUDY    43  41  93 NW16      29.59R
6HR MIN TEMP:  43; 6HR MAX TEMP:  49;


$$

INZ062-063-066-070>080-084-089>092-231300-
SOUTH CENTRAL AND SOUTHEAST INDIANA

CITY           SKY/WX    TMP DP  RH WIND       PRES   REMARKS
BLOOMINGTON    CLOUDY    43  41  93 NW12      29.57R FOG
6HR MIN TEMP:  43; 6HR MAX TEMP:  50;

MADISON *+     CLOUDY    50  45  81 N13G20    29.50R
NORTH VERNON + CLOUDY   N/A N/A N/A N10G20    29.51R
SEYMOUR +      CLOUDY    50  46  87 N18       29.52R FOG

$$





USA.gov is the U.S. government's official web portal to all federal, state and local government web resources and services.